Location: Unspecified
(0.0000°N, 0.0000°E)
Time: 11:31:41
(UTC+00:00)

NOAA 15 - Visible Passes

Search period start: 08 December 2019 00:00
Search period end: 18 December 2019 00:00
Orbit: 797 x 813 km, 98.7° (Epoch: 07 December)

Date Brightness Start Highest point End Pass type
(mag) Time Alt. Az. Time Alt. Az. Time Alt. Az.
08 Dec 5.1 19:13:43 10° S 19:18:56 63° WSW 19:24:08 10° NNW visible
09 Dec 4.5 18:48:41 10° SSE 18:53:56 66° ENE 18:59:08 10° N visible
10 Dec 5.3 18:24:14 10° SE 18:28:55 32° ENE 18:33:33 10° NNE visible
10 Dec 7.4 20:05:17 10° SW 20:08:23 16° WSW 20:11:30 10° WNW visible
11 Dec 6.4 19:38:46 10° SSW 19:43:24 31° WSW 19:48:02 10° NW visible
12 Dec 5.0 19:13:10 10° S 19:18:24 64° WSW 19:23:35 10° NNW visible
13 Dec 4.5 18:48:09 10° SSE 18:53:23 64° ENE 18:58:34 10° N visible
14 Dec 5.3 18:23:44 10° SE 18:28:23 32° ENE 18:32:59 10° NNE visible
14 Dec 7.4 20:04:41 10° SW 20:07:51 16° WSW 20:11:01 10° WNW visible
15 Dec 6.3 19:38:13 10° SSW 19:42:52 32° WSW 19:47:30 10° NW visible
16 Dec 5.0 19:12:38 10° S 19:17:52 65° WSW 19:23:03 10° NNW visible
17 Dec 4.6 18:47:38 10° SSE 18:52:51 63° ENE 18:58:01 10° N visible
